Year,Month,Day,Hour,Minute,Value (Times are PST for windgust in km/hr)
2007,07,14,00,00,0.00
2007,07,14,00,01,0.00
2007,07,14,00,02,0.00
2007,07,14,00,03,0.00
2007,07,14,00,04,0.00
2007,07,14,00,05,0.00
2007,07,14,00,06,0.00
2007,07,14,00,07,0.00
2007,07,14,00,08,0.00
2007,07,14,00,09,0.00
2007,07,14,00,10,0.00
2007,07,14,00,11,0.00
2007,07,14,00,12,0.00
2007,07,14,00,13,0.00
2007,07,14,04,24,1.60
2007,07,14,04,25,0.00
2007,07,14,04,26,0.00
2007,07,14,04,27,0.00
2007,07,14,04,28,0.00
2007,07,14,04,29,0.00
2007,07,14,04,30,0.00
2007,07,14,04,31,0.00
2007,07,14,04,32,0.00
2007,07,14,04,33,0.00
2007,07,14,04,34,0.00
2007,07,14,04,35,0.00
2007,07,14,04,36,0.00
2007,07,14,04,37,0.00
2007,07,14,04,38,0.00
2007,07,14,04,39,0.00
2007,07,14,04,40,0.00
2007,07,14,04,41,0.00
2007,07,14,04,42,0.00
2007,07,14,04,43,0.00
2007,07,14,04,44,0.00
2007,07,14,04,45,0.00
2007,07,14,04,46,0.00
2007,07,14,04,47,0.00
2007,07,14,04,48,0.00
2007,07,14,04,49,0.00
2007,07,14,04,50,0.00
2007,07,14,04,51,0.00
2007,07,14,04,52,0.00
2007,07,14,04,53,0.00
2007,07,14,04,54,0.00
2007,07,14,04,55,0.00
2007,07,14,04,56,0.00
2007,07,14,04,57,0.00
2007,07,14,04,58,0.00
2007,07,14,04,59,0.00
2007,07,14,05,00,0.00
2007,07,14,05,01,0.00
2007,07,14,05,02,0.00
2007,07,14,05,03,0.00
2007,07,14,05,04,0.00
2007,07,14,05,05,0.00
2007,07,14,05,06,0.00
2007,07,14,05,07,0.00
2007,07,14,05,08,0.00
2007,07,14,05,09,0.00
2007,07,14,05,10,0.00
2007,07,14,05,11,0.00
2007,07,14,05,12,0.00
2007,07,14,05,13,0.00
2007,07,14,05,14,0.00
2007,07,14,05,15,0.00
2007,07,14,05,16,0.00
2007,07,14,05,17,0.00
2007,07,14,05,18,0.00
2007,07,14,05,19,0.00
2007,07,14,05,20,0.00
2007,07,14,05,21,0.00
2007,07,14,05,22,0.00
2007,07,14,05,23,0.00
2007,07,14,05,24,0.00
2007,07,14,05,25,0.00
2007,07,14,05,26,0.00
2007,07,14,05,27,0.00
2007,07,14,05,28,0.00
2007,07,14,05,29,0.00
2007,07,14,05,30,0.00
2007,07,14,05,31,0.00
2007,07,14,05,32,0.00
2007,07,14,05,33,0.00
2007,07,14,05,34,0.00
2007,07,14,05,35,0.00
2007,07,14,05,36,0.00
2007,07,14,05,37,0.00
2007,07,14,05,38,0.00
2007,07,14,05,39,0.00
2007,07,14,05,40,0.00
2007,07,14,05,41,0.00
2007,07,14,05,42,0.00
2007,07,14,05,43,0.00
2007,07,14,05,44,0.00
2007,07,14,05,45,0.00
2007,07,14,05,46,0.00
2007,07,14,05,47,0.00
2007,07,14,05,48,0.00
2007,07,14,05,49,0.00
2007,07,14,05,50,0.00
2007,07,14,05,51,0.00
2007,07,14,05,52,0.00
2007,07,14,05,53,0.00
2007,07,14,05,54,0.00
2007,07,14,05,55,0.00
2007,07,14,05,56,0.00
2007,07,14,05,57,0.00
2007,07,14,05,58,0.00
2007,07,14,05,59,0.00
2007,07,14,06,00,0.00
2007,07,14,06,01,0.00
2007,07,14,06,02,0.00
2007,07,14,06,03,0.00
2007,07,14,06,04,0.00
2007,07,14,06,05,0.00
2007,07,14,06,06,0.00
2007,07,14,06,07,0.00
2007,07,14,06,08,0.00
2007,07,14,06,09,0.00
2007,07,14,06,10,0.00
2007,07,14,06,11,0.00
2007,07,14,06,12,0.00
2007,07,14,06,13,0.00
2007,07,14,06,14,0.00
2007,07,14,06,15,0.00
2007,07,14,06,16,0.00
2007,07,14,06,17,0.00
2007,07,14,06,18,0.00
2007,07,14,06,19,0.00
2007,07,14,06,20,0.00
2007,07,14,06,21,0.00
2007,07,14,06,22,0.00
2007,07,14,06,23,0.00
2007,07,14,06,24,0.00
2007,07,14,06,25,0.00
2007,07,14,06,26,0.00
2007,07,14,06,27,0.00
2007,07,14,06,28,0.00
2007,07,14,06,29,0.00
2007,07,14,06,30,0.00
2007,07,14,06,31,0.00
2007,07,14,06,32,0.00
2007,07,14,06,33,0.00
2007,07,14,06,34,0.00
2007,07,14,06,35,0.00
2007,07,14,06,36,0.00
2007,07,14,06,37,0.00
2007,07,14,06,38,0.00
2007,07,14,06,39,0.00
2007,07,14,06,40,0.00
2007,07,14,06,41,0.00
2007,07,14,06,42,0.00
2007,07,14,06,43,0.00
2007,07,14,06,44,0.00
2007,07,14,06,45,0.00
2007,07,14,06,46,0.00
2007,07,14,06,47,0.00
2007,07,14,06,48,0.00
2007,07,14,06,49,0.00
2007,07,14,06,50,0.00
2007,07,14,06,51,0.00
2007,07,14,06,52,0.00
2007,07,14,06,53,0.00
2007,07,14,06,54,0.00
2007,07,14,06,55,0.00
2007,07,14,06,56,0.00
2007,07,14,06,57,0.00
2007,07,14,06,58,0.00
2007,07,14,06,59,0.00
2007,07,14,07,00,0.00
2007,07,14,07,01,0.00
2007,07,14,07,02,0.00
2007,07,14,07,03,0.00
2007,07,14,07,04,0.00
2007,07,14,07,05,0.00
2007,07,14,07,06,0.00
2007,07,14,07,07,0.00
2007,07,14,07,08,0.00
2007,07,14,07,09,0.00
2007,07,14,07,10,0.00
2007,07,14,07,11,0.00
2007,07,14,07,12,0.00
2007,07,14,07,13,0.00
2007,07,14,07,14,0.00
2007,07,14,07,15,0.00
2007,07,14,07,16,0.00
2007,07,14,07,17,0.00
2007,07,14,07,18,0.00
2007,07,14,07,19,0.00
2007,07,14,07,20,1.60
2007,07,14,07,21,1.60
2007,07,14,07,22,1.60
2007,07,14,07,23,1.60
2007,07,14,07,24,1.60
2007,07,14,07,25,1.60
2007,07,14,07,26,0.00
2007,07,14,07,27,0.00
2007,07,14,07,28,1.60
2007,07,14,07,29,1.60
2007,07,14,07,30,0.00
2007,07,14,07,31,0.00
2007,07,14,07,32,0.00
2007,07,14,07,33,0.00
2007,07,14,07,34,0.00
2007,07,14,07,35,0.00
2007,07,14,07,36,0.00
2007,07,14,07,37,0.00
2007,07,14,07,38,0.00
2007,07,14,07,39,0.00
2007,07,14,07,40,0.00
2007,07,14,07,41,0.00
2007,07,14,07,42,0.00
2007,07,14,07,43,0.00
2007,07,14,07,44,0.00
2007,07,14,07,45,1.60
2007,07,14,07,46,0.00
2007,07,14,07,47,0.00
2007,07,14,07,48,0.00
2007,07,14,07,49,1.60
2007,07,14,07,50,3.20
2007,07,14,07,51,0.00
2007,07,14,07,52,0.00
2007,07,14,07,53,1.60
2007,07,14,07,54,1.60
2007,07,14,07,55,1.60
2007,07,14,07,56,1.60
2007,07,14,07,57,0.00
2007,07,14,07,58,3.20
2007,07,14,07,59,1.60
2007,07,14,08,00,0.00
2007,07,14,08,01,0.00
2007,07,14,08,02,0.00
2007,07,14,08,03,1.60
2007,07,14,08,04,1.60
2007,07,14,08,05,0.00
2007,07,14,08,06,0.00
2007,07,14,08,07,1.60
2007,07,14,08,08,0.00
2007,07,14,08,09,0.00
2007,07,14,08,10,0.00
2007,07,14,08,11,0.00
2007,07,14,08,12,0.00
2007,07,14,08,13,0.00
2007,07,14,08,14,1.60
2007,07,14,08,15,0.00
2007,07,14,08,16,0.00
2007,07,14,08,17,0.00
2007,07,14,08,18,1.60
2007,07,14,08,19,3.20
2007,07,14,08,20,1.60
2007,07,14,08,21,0.00
2007,07,14,08,22,1.60
2007,07,14,08,23,0.00
2007,07,14,08,24,0.00
2007,07,14,08,25,0.00
2007,07,14,08,26,0.00
2007,07,14,08,27,0.00
2007,07,14,08,28,0.00
2007,07,14,08,29,0.00
2007,07,14,08,30,0.00
2007,07,14,08,31,0.00
2007,07,14,08,32,0.00
2007,07,14,08,33,0.00
2007,07,14,08,34,0.00
2007,07,14,08,35,0.00
2007,07,14,08,36,0.00
2007,07,14,08,37,0.00
2007,07,14,08,38,0.00
2007,07,14,08,39,1.60
2007,07,14,08,40,1.60
2007,07,14,08,41,0.00
2007,07,14,08,42,0.00
2007,07,14,08,43,0.00
2007,07,14,08,44,4.80
2007,07,14,08,45,6.40
2007,07,14,08,46,1.60
2007,07,14,08,47,0.00
2007,07,14,08,48,1.60
2007,07,14,08,49,0.00
2007,07,14,08,50,1.60
2007,07,14,08,51,1.60
2007,07,14,08,52,1.60
2007,07,14,08,53,3.20
2007,07,14,08,54,3.20
2007,07,14,08,55,3.20
2007,07,14,08,56,1.60
2007,07,14,08,57,0.00
2007,07,14,08,58,1.60
2007,07,14,08,59,1.60
2007,07,14,09,00,3.20
2007,07,14,09,01,1.60
2007,07,14,09,02,3.20
2007,07,14,09,03,8.10
2007,07,14,09,04,8.10
2007,07,14,09,05,6.40
2007,07,14,09,06,4.80
2007,07,14,09,07,3.20
2007,07,14,09,08,1.60
2007,07,14,09,09,1.60
2007,07,14,09,10,0.00
2007,07,14,09,11,0.00
2007,07,14,09,12,1.60
2007,07,14,09,13,1.60
2007,07,14,09,14,0.00
2007,07,14,09,15,0.00
2007,07,14,09,16,3.20
2007,07,14,09,17,6.40
2007,07,14,09,18,6.40
2007,07,14,09,19,3.20
2007,07,14,09,20,1.60
2007,07,14,09,21,3.20
2007,07,14,09,22,1.60
2007,07,14,09,23,0.00
2007,07,14,09,24,0.00
2007,07,14,09,25,1.60
2007,07,14,09,26,6.40
2007,07,14,09,27,1.60
2007,07,14,09,28,1.60
2007,07,14,09,29,3.20
2007,07,14,09,30,6.40
2007,07,14,09,31,6.40
2007,07,14,09,32,6.40
2007,07,14,09,33,4.80
2007,07,14,09,34,4.80
2007,07,14,09,35,4.80
2007,07,14,09,36,3.20
2007,07,14,09,37,4.80
2007,07,14,09,38,1.60
2007,07,14,09,39,4.80
2007,07,14,09,40,6.40
2007,07,14,09,41,8.10
2007,07,14,09,42,3.20
2007,07,14,09,43,1.60
2007,07,14,09,44,1.60
2007,07,14,09,45,4.80
2007,07,14,09,46,4.80
2007,07,14,09,47,3.20
2007,07,14,09,48,8.10
2007,07,14,09,49,6.40
2007,07,14,09,50,4.80
2007,07,14,09,51,4.80
2007,07,14,09,52,3.20
2007,07,14,09,53,1.60
2007,07,14,09,54,4.80
2007,07,14,09,55,3.20
2007,07,14,09,56,4.80
2007,07,14,09,57,1.60
2007,07,14,09,58,1.60
2007,07,14,09,59,6.40
2007,07,14,10,00,6.40
2007,07,14,10,01,8.10
2007,07,14,10,02,9.60
2007,07,14,10,03,6.40
2007,07,14,10,04,8.10
2007,07,14,10,05,8.10
2007,07,14,10,06,6.40
2007,07,14,10,07,6.40
2007,07,14,10,08,1.60
2007,07,14,10,09,8.10
2007,07,14,10,10,11.30
2007,07,14,10,11,9.60
2007,07,14,10,12,9.60
2007,07,14,10,13,9.60
2007,07,14,10,14,6.40
2007,07,14,10,15,4.80
2007,07,14,10,16,4.80
2007,07,14,10,17,9.60
2007,07,14,10,18,9.60
2007,07,14,10,19,8.10
2007,07,14,10,20,6.40
2007,07,14,10,21,4.80
2007,07,14,10,22,8.10
2007,07,14,10,23,4.80
2007,07,14,10,24,9.60
2007,07,14,10,25,8.10
2007,07,14,10,26,8.10
2007,07,14,10,27,6.40
2007,07,14,10,28,4.80
2007,07,14,10,29,4.80
2007,07,14,10,30,1.60
2007,07,14,10,31,9.60
2007,07,14,10,32,9.60
2007,07,14,10,33,9.60
2007,07,14,10,34,9.60
2007,07,14,10,35,9.60
2007,07,14,10,36,9.60
2007,07,14,10,37,11.30
2007,07,14,10,38,9.60
2007,07,14,10,39,11.30
2007,07,14,10,40,11.30
2007,07,14,10,41,11.30
2007,07,14,10,42,12.90
2007,07,14,10,43,12.90
2007,07,14,10,44,11.30
2007,07,14,10,45,9.60
2007,07,14,10,46,8.10
2007,07,14,10,47,12.90
2007,07,14,10,48,11.30
2007,07,14,10,49,9.60
2007,07,14,10,50,11.30
2007,07,14,10,51,6.40
2007,07,14,10,52,9.60
2007,07,14,10,53,9.60
2007,07,14,10,54,8.10
2007,07,14,10,55,4.80
2007,07,14,10,56,3.20
2007,07,14,10,57,3.20
2007,07,14,10,58,8.10
2007,07,14,10,59,11.30
2007,07,14,11,00,11.30
2007,07,14,11,01,14.50
2007,07,14,11,02,11.30
2007,07,14,11,03,9.60
2007,07,14,11,04,6.40
2007,07,14,11,05,6.40
2007,07,14,11,06,6.40
2007,07,14,11,07,4.80
2007,07,14,11,08,6.40
2007,07,14,11,09,3.20
2007,07,14,11,10,9.60
2007,07,14,11,11,12.90
2007,07,14,11,12,8.10
2007,07,14,11,13,8.10
2007,07,14,11,14,9.60
2007,07,14,11,15,9.60
2007,07,14,11,16,4.80
2007,07,14,11,17,6.40
2007,07,14,11,18,6.40
2007,07,14,11,19,8.10
2007,07,14,11,20,9.60
2007,07,14,11,21,11.30
2007,07,14,11,22,8.10
2007,07,14,11,23,9.60
2007,07,14,11,24,14.50
2007,07,14,11,25,8.10
2007,07,14,11,26,9.60
2007,07,14,11,27,9.60
2007,07,14,11,28,9.60
2007,07,14,11,29,6.40
2007,07,14,11,30,3.20
2007,07,14,11,31,11.30
2007,07,14,11,32,8.10
2007,07,14,11,33,9.60
2007,07,14,11,34,4.80
2007,07,14,11,35,6.40
2007,07,14,11,36,8.10
2007,07,14,11,37,11.30
2007,07,14,11,38,11.30
2007,07,14,11,39,14.50
2007,07,14,11,40,11.30
2007,07,14,11,41,11.30
2007,07,14,11,42,4.80
2007,07,14,11,43,4.80
2007,07,14,11,44,6.40
2007,07,14,11,45,4.80
2007,07,14,11,46,4.80
2007,07,14,11,47,14.50
2007,07,14,11,48,12.90
2007,07,14,11,49,9.60
2007,07,14,11,50,12.90
2007,07,14,11,51,4.80
2007,07,14,11,52,6.40
2007,07,14,11,53,4.80
2007,07,14,11,54,4.80
2007,07,14,11,55,4.80
2007,07,14,11,56,8.10
2007,07,14,11,57,4.80
2007,07,14,11,58,8.10
2007,07,14,11,59,3.20
2007,07,14,12,00,3.20
2007,07,14,12,01,6.40
2007,07,14,12,02,8.10
2007,07,14,12,03,11.30
2007,07,14,12,04,12.90
2007,07,14,12,05,16.10
2007,07,14,12,06,16.10
2007,07,14,12,07,11.30
2007,07,14,12,08,11.30
2007,07,14,12,09,11.30
2007,07,14,12,10,6.40
2007,07,14,12,11,4.80
2007,07,14,12,12,8.10
2007,07,14,12,13,8.10
2007,07,14,12,14,3.20
2007,07,14,12,15,4.80
2007,07,14,12,16,4.80
2007,07,14,12,17,4.80
2007,07,14,12,18,9.60
2007,07,14,12,19,4.80
2007,07,14,12,20,9.60
2007,07,14,12,21,6.40
2007,07,14,12,22,16.10
2007,07,14,12,23,12.90
2007,07,14,12,24,14.50
2007,07,14,12,25,12.90
2007,07,14,12,26,12.90
2007,07,14,12,27,14.50
2007,07,14,12,28,16.10
2007,07,14,12,29,16.10
2007,07,14,12,30,9.60
2007,07,14,12,31,11.30
2007,07,14,12,32,16.10
2007,07,14,12,33,16.10
2007,07,14,12,34,14.50
2007,07,14,12,35,11.30
2007,07,14,12,36,4.80
2007,07,14,12,37,6.40
2007,07,14,12,38,3.20
2007,07,14,12,39,4.80
2007,07,14,12,40,6.40
2007,07,14,12,41,8.10
2007,07,14,12,42,6.40
2007,07,14,12,43,4.80
2007,07,14,12,44,6.40
2007,07,14,12,45,1.60
2007,07,14,12,46,4.80
2007,07,14,12,47,6.40
2007,07,14,12,48,11.30
2007,07,14,12,49,9.60
2007,07,14,12,50,16.10
2007,07,14,12,51,8.10
2007,07,14,12,52,8.10
2007,07,14,12,53,11.30
2007,07,14,12,54,11.30
2007,07,14,12,55,8.10
2007,07,14,12,56,6.40
2007,07,14,12,57,11.30
2007,07,14,12,58,6.40
2007,07,14,12,59,4.80
2007,07,14,13,00,3.20
2007,07,14,13,01,4.80
2007,07,14,13,02,4.80
2007,07,14,13,03,1.60
2007,07,14,13,04,9.60
2007,07,14,13,05,9.60
2007,07,14,13,06,11.30
2007,07,14,13,07,6.40
2007,07,14,13,08,8.10
2007,07,14,13,09,4.80
2007,07,14,13,10,1.60
2007,07,14,13,11,12.90
2007,07,14,13,12,11.30
2007,07,14,13,13,14.50
2007,07,14,13,14,9.60
2007,07,14,13,15,8.10
2007,07,14,13,16,9.60
2007,07,14,13,17,14.50
2007,07,14,13,18,14.50
2007,07,14,13,19,11.30
2007,07,14,13,20,11.30
2007,07,14,13,21,8.10
2007,07,14,13,22,3.20
2007,07,14,13,23,8.10
2007,07,14,13,24,3.20
2007,07,14,13,25,3.20
2007,07,14,13,26,6.40
2007,07,14,13,27,3.20
2007,07,14,13,28,4.80
2007,07,14,13,29,3.20
2007,07,14,13,30,4.80
2007,07,14,13,31,6.40
2007,07,14,13,32,4.80
2007,07,14,13,33,3.20
2007,07,14,13,34,6.40
2007,07,14,13,35,3.20
2007,07,14,13,36,11.30
2007,07,14,13,37,16.10
2007,07,14,13,38,6.40
2007,07,14,13,39,16.10
2007,07,14,13,40,16.10
2007,07,14,13,41,3.20
2007,07,14,13,42,4.80
2007,07,14,13,43,3.20
2007,07,14,13,44,8.10
2007,07,14,13,45,11.30
2007,07,14,13,46,4.80
2007,07,14,13,47,3.20
2007,07,14,13,48,9.60
2007,07,14,13,49,11.30
2007,07,14,13,50,4.80
2007,07,14,13,51,9.60
2007,07,14,13,52,11.30
2007,07,14,13,53,9.60
2007,07,14,13,54,6.40
2007,07,14,13,55,8.10
2007,07,14,13,56,9.60
2007,07,14,13,57,9.60
2007,07,14,13,58,9.60
2007,07,14,13,59,3.20
2007,07,14,14,00,14.50
2007,07,14,14,01,14.50
2007,07,14,14,02,8.10
2007,07,14,14,03,3.20
2007,07,14,14,04,4.80
2007,07,14,14,05,11.30
2007,07,14,14,06,9.60
2007,07,14,14,07,12.90
2007,07,14,14,08,12.90
2007,07,14,14,09,12.90
2007,07,14,14,10,9.60
2007,07,14,14,11,16.10
2007,07,14,14,12,3.20
2007,07,14,14,13,3.20
2007,07,14,14,14,11.30
2007,07,14,14,15,6.40
2007,07,14,14,16,6.40
2007,07,14,14,17,12.90
2007,07,14,14,18,17.70
2007,07,14,14,19,14.50
2007,07,14,14,20,6.40
2007,07,14,14,21,9.60
2007,07,14,14,22,14.50
2007,07,14,14,23,9.60
2007,07,14,14,24,6.40
2007,07,14,14,25,8.10
2007,07,14,14,26,6.40
2007,07,14,14,27,16.10
2007,07,14,14,28,16.10
2007,07,14,14,29,9.60
2007,07,14,14,30,8.10
2007,07,14,14,31,11.30
2007,07,14,14,32,12.90
2007,07,14,14,33,9.60
2007,07,14,14,34,11.30
2007,07,14,14,35,14.50
2007,07,14,14,36,11.30
2007,07,14,14,37,8.10
2007,07,14,14,38,4.80
2007,07,14,14,39,6.40
2007,07,14,14,40,3.20
2007,07,14,14,41,3.20
2007,07,14,14,42,6.40
2007,07,14,14,43,6.40
2007,07,14,14,44,4.80
2007,07,14,14,45,6.40
2007,07,14,14,46,3.20
2007,07,14,14,47,3.20
2007,07,14,14,48,6.40
2007,07,14,14,49,6.40
2007,07,14,14,50,3.20
2007,07,14,14,51,3.20
2007,07,14,14,52,9.60
2007,07,14,14,53,4.80
2007,07,14,14,54,3.20
2007,07,14,14,55,9.60
2007,07,14,14,56,9.60
2007,07,14,14,57,6.40
2007,07,14,14,58,3.20
2007,07,14,14,59,3.20
2007,07,14,15,00,1.60
2007,07,14,15,01,1.60
2007,07,14,15,02,4.80
2007,07,14,15,03,4.80
2007,07,14,15,04,3.20
2007,07,14,15,05,1.60
2007,07,14,15,06,6.40
2007,07,14,15,07,4.80
2007,07,14,15,08,1.60
2007,07,14,15,09,1.60
2007,07,14,15,10,4.80
2007,07,14,15,11,3.20
2007,07,14,15,12,4.80
2007,07,14,15,13,6.40
2007,07,14,15,14,6.40
2007,07,14,15,15,6.40
2007,07,14,15,16,3.20
2007,07,14,15,17,6.40
2007,07,14,15,18,3.20
2007,07,14,15,19,1.60
2007,07,14,15,20,1.60
2007,07,14,15,21,3.20
2007,07,14,15,22,0.00
2007,07,14,15,23,4.80
2007,07,14,15,24,4.80
2007,07,14,15,25,1.60
2007,07,14,15,26,1.60
2007,07,14,15,27,0.00
2007,07,14,15,28,1.60
2007,07,14,15,29,1.60
2007,07,14,15,30,3.20
2007,07,14,15,31,3.20
2007,07,14,15,32,3.20
2007,07,14,15,33,3.20
2007,07,14,15,34,4.80
2007,07,14,15,35,1.60
2007,07,14,15,36,3.20
2007,07,14,15,37,4.80
2007,07,14,15,38,4.80
2007,07,14,15,39,1.60
2007,07,14,15,40,3.20
2007,07,14,15,41,9.60
2007,07,14,15,42,11.30
2007,07,14,15,43,9.60
2007,07,14,15,44,1.60
2007,07,14,15,45,4.80
2007,07,14,15,46,3.20
2007,07,14,15,47,4.80
2007,07,14,15,48,9.60
2007,07,14,15,49,6.40
2007,07,14,15,50,8.10
2007,07,14,15,51,3.20
2007,07,14,15,52,4.80
2007,07,14,15,53,3.20
2007,07,14,15,54,1.60
2007,07,14,15,55,3.20
2007,07,14,15,56,3.20
2007,07,14,15,57,8.10
2007,07,14,15,58,6.40
2007,07,14,15,59,4.80
2007,07,14,16,00,4.80
2007,07,14,16,01,4.80
2007,07,14,16,02,3.20
2007,07,14,16,03,3.20
2007,07,14,16,04,3.20
2007,07,14,16,05,3.20
2007,07,14,16,06,4.80
2007,07,14,16,07,3.20
2007,07,14,16,08,4.80
2007,07,14,16,09,0.00
2007,07,14,16,10,3.20
2007,07,14,16,11,1.60
2007,07,14,16,12,4.80
2007,07,14,16,13,3.20
2007,07,14,16,14,3.20
2007,07,14,16,15,4.80
2007,07,14,16,16,3.20
2007,07,14,16,17,1.60
2007,07,14,16,18,3.20
2007,07,14,16,19,9.60
2007,07,14,16,20,4.80
2007,07,14,16,21,6.40
2007,07,14,16,22,11.30
2007,07,14,16,23,11.30
2007,07,14,16,24,4.80
2007,07,14,16,25,16.10
2007,07,14,16,26,11.30
2007,07,14,16,27,3.20
2007,07,14,16,28,1.60
2007,07,14,16,29,6.40
2007,07,14,16,30,6.40
2007,07,14,16,31,6.40
2007,07,14,16,32,1.60
2007,07,14,16,33,3.20
2007,07,14,16,34,3.20
2007,07,14,16,35,1.60
2007,07,14,16,36,6.40
2007,07,14,16,37,3.20
2007,07,14,16,38,3.20
2007,07,14,16,39,1.60
2007,07,14,16,40,3.20
2007,07,14,16,41,3.20
2007,07,14,16,42,3.20
2007,07,14,16,43,1.60
2007,07,14,16,44,6.40
2007,07,14,16,45,6.40
2007,07,14,16,46,4.80
2007,07,14,16,47,4.80
2007,07,14,16,48,3.20
2007,07,14,16,49,6.40
2007,07,14,16,50,8.10
2007,07,14,16,51,6.40
2007,07,14,16,52,6.40
2007,07,14,16,53,1.60
2007,07,14,16,54,9.60
2007,07,14,16,55,14.50
2007,07,14,16,56,11.30
2007,07,14,16,57,11.30
2007,07,14,16,58,17.70
2007,07,14,16,59,17.70
2007,07,14,17,00,16.10
2007,07,14,17,01,14.50
2007,07,14,17,02,6.40
2007,07,14,17,03,17.70
2007,07,14,17,04,19.30
2007,07,14,17,05,16.10
2007,07,14,17,06,12.90
2007,07,14,17,07,16.10
2007,07,14,17,08,16.10
2007,07,14,17,09,16.10
2007,07,14,17,10,19.30
2007,07,14,17,11,17.70
2007,07,14,17,12,11.30
2007,07,14,17,13,16.10
2007,07,14,17,14,14.50
2007,07,14,17,15,11.30
2007,07,14,17,16,12.90
2007,07,14,17,17,16.10
2007,07,14,17,18,12.90
2007,07,14,17,19,14.50
2007,07,14,17,20,9.60
2007,07,14,17,21,11.30
2007,07,14,17,22,9.60
2007,07,14,17,23,8.10
2007,07,14,17,24,9.60
2007,07,14,17,25,9.60
2007,07,14,17,26,12.90
2007,07,14,17,27,9.60
2007,07,14,17,28,9.60
2007,07,14,17,29,14.50
2007,07,14,17,30,17.70
2007,07,14,17,31,19.30
2007,07,14,17,32,19.30
2007,07,14,17,33,11.30
2007,07,14,17,34,14.50
2007,07,14,17,35,8.10
2007,07,14,17,36,19.30
2007,07,14,17,37,16.10
2007,07,14,17,38,14.50
2007,07,14,17,39,16.10
2007,07,14,17,40,19.30
2007,07,14,17,41,14.50
2007,07,14,17,42,19.30
2007,07,14,17,43,19.30
2007,07,14,17,44,14.50
2007,07,14,17,45,19.30
2007,07,14,17,46,16.10
2007,07,14,17,47,14.50
2007,07,14,17,48,14.50
2007,07,14,17,49,16.10
2007,07,14,17,50,16.10
2007,07,14,17,51,14.50
2007,07,14,17,52,14.50
2007,07,14,17,53,16.10
2007,07,14,17,54,16.10
2007,07,14,17,55,11.30
2007,07,14,17,56,17.70
2007,07,14,17,57,16.10
2007,07,14,17,58,12.90
2007,07,14,17,59,8.10
2007,07,14,18,00,9.60
2007,07,14,18,01,16.10
2007,07,14,18,02,19.30
2007,07,14,18,03,11.30
2007,07,14,18,04,16.10
2007,07,14,18,05,16.10
2007,07,14,18,06,11.30
2007,07,14,18,07,8.10
2007,07,14,18,08,8.10
2007,07,14,18,09,11.30
2007,07,14,18,10,14.50
2007,07,14,18,11,9.60
2007,07,14,18,12,9.60
2007,07,14,18,13,6.40
2007,07,14,18,14,6.40
2007,07,14,18,15,11.30
2007,07,14,18,16,14.50
2007,07,14,18,17,11.30
2007,07,14,18,18,9.60
2007,07,14,18,19,9.60
2007,07,14,18,20,8.10
2007,07,14,18,21,11.30
2007,07,14,18,22,4.80
2007,07,14,18,23,4.80
2007,07,14,18,24,6.40
2007,07,14,18,25,3.20
2007,07,14,18,26,11.30
2007,07,14,18,27,8.10
2007,07,14,18,28,4.80
2007,07,14,18,29,3.20
2007,07,14,18,30,9.60
2007,07,14,18,31,9.60
2007,07,14,18,32,4.80
2007,07,14,18,33,6.40
2007,07,14,18,34,8.10
2007,07,14,18,35,9.60
2007,07,14,18,36,9.60
2007,07,14,18,37,6.40
2007,07,14,18,38,8.10
2007,07,14,18,39,6.40
2007,07,14,18,40,8.10
2007,07,14,18,41,9.60
2007,07,14,18,42,11.30
2007,07,14,18,43,9.60
2007,07,14,18,44,9.60
2007,07,14,18,45,8.10
2007,07,14,18,46,3.20
2007,07,14,18,47,3.20
2007,07,14,18,48,3.20
2007,07,14,18,49,6.40
2007,07,14,18,50,3.20
2007,07,14,18,51,0.00
2007,07,14,18,52,1.60
2007,07,14,18,53,1.60
2007,07,14,18,54,0.00
2007,07,14,18,55,1.60
2007,07,14,18,56,1.60
2007,07,14,18,57,4.80
2007,07,14,18,58,3.20
2007,07,14,18,59,1.60
2007,07,14,19,00,0.00
2007,07,14,19,01,1.60
2007,07,14,19,02,0.00
2007,07,14,19,03,4.80
2007,07,14,19,04,4.80
2007,07,14,19,05,3.20
2007,07,14,19,06,1.60
2007,07,14,19,07,0.00
2007,07,14,19,08,0.00
2007,07,14,19,09,1.60
2007,07,14,19,10,0.00
2007,07,14,19,11,0.00
2007,07,14,19,12,0.00
2007,07,14,19,13,0.00
2007,07,14,19,14,0.00
2007,07,14,19,15,0.00
2007,07,14,19,16,1.60
2007,07,14,19,17,0.00
2007,07,14,19,18,3.20
2007,07,14,19,19,3.20
2007,07,14,19,20,3.20
2007,07,14,19,21,3.20
2007,07,14,19,22,0.00
2007,07,14,19,23,0.00
2007,07,14,19,24,3.20
2007,07,14,19,25,1.60
2007,07,14,19,26,0.00
2007,07,14,19,27,1.60
2007,07,14,19,28,0.00
2007,07,14,19,29,0.00
2007,07,14,19,30,1.60
2007,07,14,19,31,1.60
2007,07,14,19,32,3.20
2007,07,14,19,33,3.20
2007,07,14,19,34,3.20
2007,07,14,19,35,0.00
2007,07,14,19,36,0.00
2007,07,14,19,37,1.60
2007,07,14,19,38,4.80
2007,07,14,19,39,6.40
2007,07,14,19,40,4.80
2007,07,14,19,41,4.80
2007,07,14,19,42,8.10
2007,07,14,19,43,6.40
2007,07,14,19,44,8.10
2007,07,14,19,45,6.40
2007,07,14,19,46,4.80
2007,07,14,19,47,1.60
2007,07,14,19,48,3.20
2007,07,14,19,49,4.80
2007,07,14,19,50,4.80
2007,07,14,19,51,4.80
2007,07,14,19,52,4.80
2007,07,14,19,53,4.80
2007,07,14,19,54,3.20
2007,07,14,19,55,3.20
2007,07,14,19,56,1.60
2007,07,14,19,57,1.60
2007,07,14,19,58,1.60
2007,07,14,19,59,3.20
2007,07,14,20,00,3.20
2007,07,14,20,01,1.60
2007,07,14,20,02,0.00
2007,07,14,20,03,0.00
2007,07,14,20,04,0.00
2007,07,14,20,05,1.60
2007,07,14,20,06,1.60
2007,07,14,20,07,1.60
2007,07,14,20,08,3.20
2007,07,14,20,09,0.00
2007,07,14,20,10,0.00
2007,07,14,20,11,0.00
2007,07,14,20,12,0.00
2007,07,14,20,13,0.00
2007,07,14,20,14,0.00
2007,07,14,20,15,0.00
2007,07,14,20,16,0.00
2007,07,14,20,17,0.00
2007,07,14,20,18,1.60
2007,07,14,20,19,3.20
2007,07,14,20,20,3.20
2007,07,14,20,21,1.60
2007,07,14,20,22,0.00
2007,07,14,20,23,0.00
2007,07,14,20,24,1.60
2007,07,14,20,25,1.60
2007,07,14,20,26,1.60
2007,07,14,20,27,1.60
2007,07,14,20,28,0.00
2007,07,14,20,29,0.00
2007,07,14,20,30,0.00
2007,07,14,20,31,0.00
2007,07,14,20,32,0.00
2007,07,14,20,33,0.00
2007,07,14,20,34,1.60
2007,07,14,20,35,1.60
2007,07,14,20,36,3.20
2007,07,14,20,37,3.20
2007,07,14,20,38,1.60
2007,07,14,20,39,1.60
2007,07,14,20,40,3.20
2007,07,14,20,41,3.20
2007,07,14,20,42,3.20
2007,07,14,20,43,1.60
2007,07,14,20,44,0.00
2007,07,14,20,45,0.00
2007,07,14,20,46,0.00
2007,07,14,20,47,0.00
2007,07,14,20,48,0.00
2007,07,14,20,49,0.00
2007,07,14,20,50,0.00
2007,07,14,20,51,0.00
2007,07,14,20,52,0.00
2007,07,14,20,53,0.00
2007,07,14,20,54,0.00
2007,07,14,20,55,0.00
2007,07,14,20,56,0.00
2007,07,14,20,57,0.00
2007,07,14,20,58,0.00
2007,07,14,20,59,0.00
2007,07,14,21,00,0.00
2007,07,14,21,01,0.00
2007,07,14,21,02,0.00
2007,07,14,21,03,0.00
2007,07,14,21,04,0.00
2007,07,14,21,05,0.00
2007,07,14,21,06,0.00
2007,07,14,21,07,0.00
2007,07,14,21,08,0.00
2007,07,14,21,09,0.00
2007,07,14,21,10,0.00
2007,07,14,21,11,0.00
2007,07,14,21,12,0.00
2007,07,14,21,13,0.00
2007,07,14,21,14,0.00
2007,07,14,21,15,0.00
2007,07,14,21,16,0.00
2007,07,14,21,17,0.00
2007,07,14,21,18,0.00
2007,07,14,21,19,0.00
2007,07,14,21,20,0.00
2007,07,14,21,21,0.00
2007,07,14,21,22,0.00
2007,07,14,21,23,0.00
2007,07,14,21,24,0.00
2007,07,14,21,25,0.00
2007,07,14,21,26,0.00
2007,07,14,21,27,0.00
2007,07,14,21,28,0.00
2007,07,14,21,29,0.00
2007,07,14,21,30,0.00
2007,07,14,21,31,0.00
2007,07,14,21,32,0.00
2007,07,14,21,33,0.00
2007,07,14,21,34,0.00
2007,07,14,21,35,0.00
2007,07,14,21,36,0.00
2007,07,14,21,37,0.00
2007,07,14,21,38,0.00
2007,07,14,21,39,0.00
2007,07,14,21,40,0.00
2007,07,14,21,41,0.00
2007,07,14,21,42,0.00
2007,07,14,21,43,0.00
2007,07,14,21,44,0.00
2007,07,14,21,45,0.00
2007,07,14,21,46,0.00
2007,07,14,21,47,0.00
2007,07,14,21,48,0.00
2007,07,14,21,49,0.00
2007,07,14,21,50,0.00
2007,07,14,21,51,0.00
2007,07,14,21,52,0.00
2007,07,14,21,53,0.00
2007,07,14,21,54,0.00
2007,07,14,21,55,0.00
2007,07,14,21,56,0.00
2007,07,14,21,57,1.60
2007,07,14,21,58,0.00
2007,07,14,21,59,0.00
2007,07,14,22,00,0.00
2007,07,14,22,01,0.00
2007,07,14,22,02,0.00
2007,07,14,22,03,0.00
2007,07,14,22,04,0.00
2007,07,14,22,05,0.00
2007,07,14,22,06,0.00
2007,07,14,22,07,0.00
2007,07,14,22,08,0.00
2007,07,14,22,09,0.00